Location: ??
(34.7707°N, 135.6540°E)
Time: 20:50:01
(UTC+00:00)

STARLINK-3095 - Pass Details

Date: 28 September 2021
Orbit: 357 x 362 km, 70.0° (Epoch: 22 October)

Event Time Altitude Azimuth Distance (km) Brightness Sun altitude
Rises 20:11:36 0° 164° (SSE) 2,167 6.8 -8.8°
Reaches altitude 10° 20:14:18 10° 136° (SE) 1,330 6.2 -8.2°
Maximum altitude 20:15:48 13° 104° (ESE) 1,159 6.6 -7.9°
Drops below altitude 10° 20:17:18 10° 73° (ENE) 1,336 7.1 -7.6°
Sets 20:20:02 0° 45° (NE) 2,189 7.5 -7.1°
